| time (UTC) | temp C | wind direction | speed KPH | gust KPH | rain 1hr cm | rain 24hr cm | rain mn cm | humidity % | barometer mb |
| 20260906040121 | 26 | 0 | 0.0 | 0.0 | 0.00 | 0.30 | 0.30 | 87 | 1011.8 |
| 20260906034604 | 26 | 0 | 0.0 | 1.6 | 0.00 | 0.30 | 0.30 | 87 | 1011.7 |
| 20260906033126 | 26 | 0 | 0.0 | 1.6 | 0.00 | 0.30 | 0.30 | 86 | 1011.5 |
| 20260906031618 | 26 | 0 | 0.0 | 3.2 | 0.00 | 0.30 | 0.30 | 86 | 1011.7 |
| 20260906030104 | 26 | 0 | 0.0 | 1.6 | 0.00 | 0.30 | 0.30 | 85 | 1011.9 |
| 20260906024608 | 26 | 0 | 0.0 | 1.6 | 0.00 | 0.30 | 0.30 | 84 | 1011.6 |
| 20260906023102 | 26 | 0 | 0.0 | 3.2 | 0.00 | 0.30 | 0.30 | 83 | 1011.6 |
| 20260906021609 | 26 | 0 | 0.0 | 4.8 | 0.00 | 0.30 | 0.30 | 82 | 1011.4 |
| 20260906020106 | 26 | 0 | 0.0 | 0.0 | 0.00 | 0.30 | 0.30 | 80 | 1011.0 |
| 20260906014603 | 27 | 0 | 0.0 | 0.0 | 0.00 | 0.30 | 0.30 | 79 | 1010.7 |
| 20260906013112 | 27 | 0 | 0.0 | 1.6 | 0.00 | 0.30 | 0.30 | 78 | 1010.3 |
| 20260906011606 | 27 | 0 | 0.0 | 3.2 | 0.00 | 0.30 | 0.30 | 77 | 1010.3 |
| 20260906010103 | 27 | 0 | 1.6 | 6.4 | 0.00 | 0.30 | 0.30 | 76 | 1010.5 |
| 20260906004607 | 28 | 83 | 0.0 | 4.8 | 0.00 | 0.30 | 0.30 | 74 | 1010.5 |
| 20260906003104 | 28 | 0 | 0.0 | 3.2 | 0.00 | 0.30 | 0.30 | 73 | 1010.7 |
| 20260906001602 | 28 | 0 | 0.0 | 4.8 | 0.00 | 0.30 | 0.30 | 72 | 1011.0 |
| 20260906000109 | 28 | 78 | 1.6 | 4.8 | 0.00 | 0.30 | 0.30 | 70 | 1010.8 |
| 20260905234607 | 29 | 76 | 1.6 | 4.8 | 0.00 | 0.30 | 0.30 | 69 | 1010.8 |
| 20260905233104 | 30 | 71 | 1.6 | 6.4 | 0.00 | 0.30 | 0.30 | 67 | 1010.9 |
| 20260905231601 | 30 | 72 | 1.6 | 4.8 | 0.00 | 0.30 | 0.30 | 64 | 1010.6 |
| 20260905230128 | 31 | 84 | 1.6 | 6.4 | 0.00 | 0.30 | 0.30 | 64 | 1010.3 |
| 20260905224611 | 32 | 86 | 3.2 | 6.4 | 0.00 | 0.30 | 0.30 | 62 | 1010.2 |
| 20260905223109 | 33 | 66 | 1.6 | 6.4 | 0.00 | 0.30 | 0.30 | 61 | 1010.2 |
| 20260905221605 | 33 | 67 | 0.0 | 3.2 | 0.00 | 0.30 | 0.30 | 59 | 1010.4 |
| 20260905220106 | 33 | 0 | 0.0 | 3.2 | 0.00 | 0.30 | 0.30 | 59 | 1010.1 |
| 20260905214600 | 33 | 0 | 0.0 | 0.0 | 0.00 | 0.30 | 0.30 | 60 | 1010.1 |
| 20260905213115 | 33 | 0 | 0.0 | 0.0 | 0.00 | 0.30 | 0.30 | 63 | 1010.3 |
| 20260905211609 | 33 | 0 | 0.0 | 1.6 | 0.00 | 0.30 | 0.30 | 61 | 1010.4 |
| 20260905210108 | 32 | 0 | 0.0 | 4.8 | 0.00 | 0.30 | 0.30 | 62 | 1010.6 |
| 20260905204611 | 32 | 0 | 0.0 | 1.6 | 0.00 | 0.30 | 0.30 | 62 | 1010.7 |
| 20260905203126 | 31 | 0 | 0.0 | 0.0 | 0.00 | 0.30 | 0.30 | 76 | 1010.9 |
| 20260905201610 | 29 | 0 | 0.0 | 0.0 | 0.30 | 0.30 | 0.30 | 80 | 1010.8 |
| 20260905200121 | 30 | 0 | 0.0 | 0.0 | 0.30 | 0.30 | 0.30 | 80 | 1011.2 |
| 20260905194607 | 30 | 0 | 0.0 | 0.0 | 0.30 | 0.30 | 0.30 | 75 | 1011.6 |
| 20260905193104 | 32 | 0 | 0.0 | 1.6 | 0.30 | 0.30 | 0.30 | 67 | 1011.6 |
| 20260905191606 | 34 | 0 | 1.6 | 6.4 | 0.00 | 0.00 | 0.00 | 56 | 1011.7 |
| 20260905190106 | 34 | 0 | 0.0 | 4.8 | 0.00 | 0.00 | 0.00 | 54 | 1011.7 |
| 20260905184611 | 33 | 182 | 0.0 | 11.3 | 0.00 | 0.00 | 0.00 | 56 | 1011.9 |
| 20260905183101 | 34 | 0 | 0.0 | 6.4 | 0.00 | 0.00 | 0.00 | 53 | 1012.3 |
| 20260905181603 | 35 | 99 | 0.0 | 4.8 | 0.00 | 0.00 | 0.00 | 52 | 1012.3 |
| 20260905180106 | 35 | 76 | 0.0 | 3.2 | 0.00 | 0.00 | 0.00 | 52 | 1012.8 |
| 20260905174603 | 35 | 0 | 0.0 | 3.2 | 0.00 | 0.00 | 0.00 | 52 | 1012.9 |
| 20260905173106 | 34 | 0 | 1.6 | 4.8 | 0.00 | 0.00 | 0.00 | 55 | 1013.3 |
| 20260905171603 | 33 | 0 | 0.0 | 6.4 | 0.00 | 0.00 | 0.00 | 56 | 1013.3 |
| 20260905170123 | 33 | 0 | 0.0 | 4.8 | 0.00 | 0.00 | 0.00 | 61 | 1013.3 |
| 20260905164606 | 32 | 70 | 0.0 | 3.2 | 0.00 | 0.00 | 0.00 | 62 | 1013.7 |
| 20260905163106 | 31 | 0 | 0.0 | 1.6 | 0.00 | 0.00 | 0.00 | 69 | 1013.6 |
| 20260905161604 | 30 | 0 | 0.0 | 1.6 | 0.00 | 0.00 | 0.00 | 69 | 1013.6 |
| 20260905154613 | 30 | 0 | 0.0 | 1.6 | 0.00 | 0.00 | 0.00 | 75 | 1013.5 |
| 20260905153104 | 29 | 0 | 0.0 | 3.2 | 0.00 | 0.00 | 0.00 | 78 | 1013.4 |
| 20260905151622 | 28 | 0 | 0.0 | 0.0 | 0.00 | 0.00 | 0.00 | 82 | 1013.7 |
| 20260905144603 | 27 | 0 | 0.0 | 6.4 | 0.00 | 0.00 | 0.00 | 90 | 1013.4 |
| 20260905143106 | 26 | 0 | 0.0 | 0.0 | 0.00 | 0.00 | 0.00 | 92 | 1013.5 |
| 20260905141605 | 26 | 0 | 0.0 | 0.0 | 0.00 | 0.00 | 0.00 | 93 | 1013.6 |
| 20260905134603 | 25 | 0 | 0.0 | 0.0 | 0.00 | 0.00 | 0.00 | 93 | 1013.3 |
| 20260905133101 | 25 | 0 | 0.0 | 0.0 | 0.00 | 0.00 | 0.00 | 93 | 1013.3 |
| 20260905131608 | 24 | 0 | 0.0 | 0.0 | 0.00 | 0.00 | 0.00 | 92 | 1013.2 |
| 20260905124609 | 24 | 0 | 0.0 | 0.0 | 0.00 | 0.00 | 0.00 | 91 | 1012.8 |
| 20260905123105 | 24 | 0 | 0.0 | 0.0 | 0.00 | 0.00 | 0.00 | 91 | 1012.9 |
| 20260905121601 | 24 | 0 | 0.0 | 0.0 | 0.00 | 0.00 | 0.00 | 91 | 1012.7 |
| 20260905120100 | 24 | 0 | 0.0 | 0.0 | 0.00 | 0.00 | 0.00 | 91 | 1012.5 |
| 20260905114604 | 24 | 0 | 0.0 | 0.0 | 0.00 | 0.00 | 0.00 | 91 | 1012.6 |
| 20260905113101 | 25 | 0 | 0.0 | 0.0 | 0.00 | 0.00 | 0.00 | 90 | 1012.1 |
| 20260905111604 | 25 | 0 | 0.0 | 0.0 | 0.00 | 0.00 | 0.00 | 90 | 1012.1 |
| 20260905110110 | 25 | 0 | 0.0 | 0.0 | 0.00 | 0.00 | 0.00 | 90 | 1012.2 |
| 20260905104604 | 25 | 0 | 0.0 | 0.0 | 0.00 | 0.00 | 0.00 | 90 | 1011.9 |
| 20260905103102 | 25 | 0 | 0.0 | 0.0 | 0.00 | 0.00 | 0.00 | 90 | 1012.0 |
| 20260905101610 | 25 | 0 | 0.0 | 0.0 | 0.00 | 0.00 | 0.00 | 89 | 1012.1 |
| 20260905094602 | 25 | 0 | 0.0 | 0.0 | 0.00 | 0.00 | 0.00 | 89 | 1011.9 |
| 20260905093126 | 25 | 0 | 0.0 | 0.0 | 0.00 | 0.00 | 0.00 | 89 | 1012.1 |
| 20260905091607 | 25 | 0 | 0.0 | 0.0 | 0.00 | 0.00 | 0.00 | 89 | 1012.0 |
| 20260905090059 | 25 | 0 | 0.0 | 0.0 | 0.00 | 0.00 | 0.00 | 89 | 1011.8 |
| 20260905084605 | 25 | 0 | 0.0 | 0.0 | 0.00 | 0.03 | 0.00 | 88 | 1011.7 |
| 20260905083111 | 25 | 0 | 0.0 | 0.0 | 0.00 | 0.03 | 0.00 | 88 | 1011.8 |
| 20260905081600 | 25 | 0 | 0.0 | 0.0 | 0.00 | 0.03 | 0.00 | 87 | 1011.8 |
| 20260905080106 | 25 | 0 | 0.0 | 0.0 | 0.00 | 0.03 | 0.00 | 87 | 1011.9 |
| 20260905074604 | 26 | 0 | 0.0 | 0.0 | 0.00 | 0.03 | 0.00 | 87 | 1011.9 |
| 20260905073103 | 26 | 0 | 0.0 | 0.0 | 0.00 | 0.03 | 0.00 | 86 | 1012.1 |
| 20260905071601 | 26 | 0 | 0.0 | 0.0 | 0.00 | 0.03 | 0.00 | 86 | 1012.3 |
| 20260905070116 | 26 | 0 | 0.0 | 0.0 | 0.00 | 0.03 | 0.00 | 86 | 1012.4 |
| 20260905064602 | 26 | 0 | 0.0 | 0.0 | 0.00 | 0.10 | 0.00 | 85 | 1012.5 |
| 20260905063102 | 26 | 0 | 0.0 | 0.0 | 0.00 | 0.10 | 0.00 | 84 | 1012.5 |
| 20260905061608 | 26 | 0 | 0.0 | 0.0 | 0.00 | 0.10 | 0.00 | 84 | 1012.4 |
| 20260905060101 | 26 | 0 | 0.0 | 0.0 | 0.00 | 0.10 | 0.00 | 84 | 1012.7 |
| 20260905054558 | 26 | 0 | 0.0 | 0.0 | 0.00 | 0.15 | 0.00 | 83 | 1012.7 |
| 20260905053059 | 26 | 0 | 0.0 | 1.6 | 0.00 | 0.15 | 0.00 | 83 | 1012.5 |
| 20260905051601 | 26 | 0 | 0.0 | 1.6 | 0.00 | 0.15 | 0.00 | 82 | 1012.4 |
| 20260905050103 | 26 | 0 | 0.0 | 1.6 | 0.00 | 0.15 | 0.00 | 82 | 1012.4 |
| 20260905044605 | 26 | 0 | 0.0 | 1.6 | 0.00 | 0.15 | 0.15 | 82 | 1012.7 |
| 20260905043100 | 26 | 0 | 0.0 | 0.0 | 0.00 | 0.15 | 0.15 | 82 | 1012.6 |
| 20260905041607 | 27 | 0 | 0.0 | 0.0 | 0.00 | 0.15 | 0.15 | 81 | 1012.5 |